Terminal Aerodrome Forecast
Issued by NWS Salt Lake City, UT

Home | Current Version | Previous Version | Text Only | Print | Product List | Glossary On
Versions: 1 2 3 4 5 6 7 8 9 10 11 12 13 14 15 16 17 18 19 20 21 22 23 24 25 26 27 28 29 30 31 32 33 34 35 36 37 38 39 40 41 42 43 44 45 46 47 48 49 50
000
FTUS45 KSLC 080211 AAB
TAFSLC
TAF AMD
KSLC 080211Z 0802/0906 11008KT P6SM FEW090 BKN200
     FM080500 15008KT P6SM SCT090 BKN150
     FM082000 32009KT P6SM VCSH SCT070 BKN120
     FM090300 15007KT P6SM SCT090 SCT150=

USA.gov is the U.S. government's official web portal to all federal, state and local government web resources and services.